| time (UTC) | temp F | wind direction | speed MPH | gust MPH | rain 1hr in | rain 24hr in | rain mn in | humidity % | barometer mb |
| 20260901015537 | 84 | 197 | 0.0 | 1.0 | 0.00 | 0.15 | 0.15 | 86 | 1018.4 |
| 20260901014517 | 84 | 195 | 0.0 | 1.0 | 0.00 | 0.15 | 0.15 | 86 | 1018.4 |
| 20260901013517 | 84 | 0.0 | 1.0 | 0.00 | 0.15 | 0.15 | 85 | 1018.4 | |
| 20260901012536 | 84 | 0.0 | 0.0 | 0.00 | 0.15 | 0.15 | 86 | 1018.3 | |
| 20260901011517 | 84 | 0.0 | 0.0 | 0.00 | 0.15 | 0.15 | 85 | 1018.3 | |
| 20260901010517 | 84 | 0.0 | 0.0 | 0.00 | 0.15 | 0.15 | 84 | 1018.1 | |
| 20260901005516 | 84 | 0.0 | 1.0 | 0.00 | 0.15 | 0.15 | 84 | 1018.0 | |
| 20260901004516 | 84 | 273 | 0.0 | 1.0 | 0.00 | 0.15 | 0.15 | 85 | 1018.0 |
| 20260901003536 | 85 | 258 | 0.0 | 1.0 | 0.00 | 0.15 | 0.15 | 86 | 1017.8 |
| 20260901002517 | 85 | 247 | 0.0 | 1.0 | 0.00 | 0.15 | 0.15 | 86 | 1017.7 |
| 20260901001517 | 85 | 152 | 0.0 | 1.0 | 0.00 | 0.15 | 0.15 | 84 | 1017.7 |
| 20260901000516 | 85 | 262 | 0.0 | 1.0 | 0.00 | 0.15 | 0.15 | 84 | 1017.8 |
| 20260831235516 | 86 | 256 | 0.0 | 1.0 | 0.00 | 0.15 | 0.15 | 83 | 1017.7 |
| 20260831234517 | 86 | 266 | 0.0 | 2.0 | 0.00 | 0.15 | 0.15 | 83 | 1017.8 |
| 20260831233517 | 86 | 250 | 0.0 | 3.0 | 0.00 | 0.15 | 0.15 | 82 | 1017.8 |
| 20260831232517 | 87 | 180 | 0.0 | 1.0 | 0.00 | 0.15 | 0.15 | 82 | 1017.9 |
| 20260831231537 | 87 | 245 | 0.0 | 2.0 | 0.00 | 0.15 | 0.15 | 82 | 1017.9 |
| 20260831230516 | 87 | 281 | 0.0 | 2.0 | 0.00 | 0.15 | 0.15 | 82 | 1018.0 |
| 20260831225517 | 87 | 246 | 1.0 | 3.0 | 0.00 | 0.15 | 0.15 | 82 | 1018.0 |
| 20260831224516 | 87 | 159 | 0.0 | 4.0 | 0.00 | 0.15 | 0.15 | 79 | 1018.1 |
| 20260831223517 | 88 | 269 | 0.0 | 2.0 | 0.00 | 0.15 | 0.15 | 79 | 1018.0 |
| 20260831222536 | 88 | 196 | 0.0 | 3.0 | 0.00 | 0.15 | 0.15 | 79 | 1018.1 |
| 20260831221517 | 88 | 151 | 0.0 | 3.0 | 0.00 | 0.15 | 0.15 | 79 | 1018.1 |
| 20260831220516 | 88 | 226 | 1.0 | 3.0 | 0.00 | 0.15 | 0.15 | 78 | 1018.0 |
| 20260831215516 | 89 | 168 | 1.0 | 4.0 | 0.00 | 0.15 | 0.15 | 77 | 1018.0 |
| 20260831214517 | 89 | 199 | 1.0 | 7.0 | 0.00 | 0.15 | 0.15 | 77 | 1018.1 |
| 20260831213516 | 90 | 162 | 1.0 | 6.0 | 0.00 | 0.15 | 0.15 | 75 | 1018.3 |
| 20260831212516 | 90 | 202 | 1.0 | 6.0 | 0.00 | 0.15 | 0.15 | 76 | 1018.4 |
| 20260831211516 | 90 | 160 | 1.0 | 4.0 | 0.00 | 0.15 | 0.15 | 75 | 1018.4 |
| 20260831210537 | 90 | 218 | 0.0 | 4.0 | 0.00 | 0.15 | 0.15 | 75 | 1018.4 |
| 20260831205516 | 89 | 153 | 0.0 | 5.0 | 0.00 | 0.15 | 0.15 | 77 | 1018.5 |
| 20260831204516 | 89 | 137 | 1.0 | 7.0 | 0.00 | 0.15 | 0.15 | 76 | 1018.5 |
| 20260831203516 | 89 | 120 | 2.0 | 8.0 | 0.00 | 0.15 | 0.15 | 76 | 1018.4 |
| 20260831202516 | 90 | 142 | 3.0 | 8.0 | 0.00 | 0.15 | 0.15 | 75 | 1018.6 |
| 20260831201016 | 89 | 118 | 2.0 | 7.0 | 0.00 | 0.15 | 0.15 | 77 | 1018.7 |
| 20260831200016 | 90 | 121 | 2.0 | 9.0 | 0.00 | 0.15 | 0.15 | 75 | 1018.5 |
| 20260831195016 | 90 | 120 | 2.0 | 8.0 | 0.00 | 0.15 | 0.15 | 76 | 1018.6 |
| 20260831194016 | 90 | 157 | 2.0 | 6.0 | 0.00 | 0.15 | 0.15 | 75 | 1018.7 |
| 20260831193516 | 90 | 148 | 2.0 | 8.0 | 0.00 | 0.15 | 0.15 | 76 | 1018.8 |
| 20260831192516 | 90 | 139 | 2.0 | 7.0 | 0.00 | 0.15 | 0.15 | 76 | 1019.0 |
| 20260831191516 | 90 | 175 | 2.0 | 6.0 | 0.00 | 0.15 | 0.15 | 76 | 1019.2 |
| 20260831190516 | 90 | 158 | 2.0 | 6.0 | 0.00 | 0.15 | 0.15 | 76 | 1019.2 |
| 20260831185516 | 90 | 176 | 2.0 | 5.0 | 0.00 | 0.15 | 0.15 | 76 | 1019.2 |
| 20260831184516 | 90 | 142 | 2.0 | 6.0 | 0.00 | 0.15 | 0.15 | 76 | 1019.1 |
| 20260831183516 | 90 | 184 | 3.0 | 7.0 | 0.00 | 0.15 | 0.15 | 77 | 1019.0 |
| 20260831182518 | 89 | 157 | 2.0 | 7.0 | 0.00 | 0.15 | 0.15 | 79 | 1019.2 |
| 20260831181516 | 88 | 168 | 1.0 | 8.0 | 0.00 | 0.15 | 0.15 | 80 | 1019.4 |
| 20260831180536 | 89 | 150 | 2.0 | 6.0 | 0.00 | 0.15 | 0.15 | 78 | 1019.5 |
| 20260831175516 | 89 | 147 | 3.0 | 7.0 | 0.00 | 0.15 | 0.15 | 77 | 1019.6 |
| 20260831174536 | 88 | 130 | 2.0 | 6.0 | 0.00 | 0.15 | 0.15 | 77 | 1019.5 |
| 20260831173516 | 88 | 169 | 2.0 | 7.0 | 0.00 | 0.15 | 0.15 | 79 | 1019.6 |
| 20260831172516 | 88 | 135 | 1.0 | 5.0 | 0.00 | 0.15 | 0.15 | 77 | 1019.6 |
| 20260831171016 | 89 | 144 | 2.0 | 6.0 | 0.00 | 0.15 | 0.15 | 78 | 1019.7 |
| 20260831170016 | 89 | 150 | 2.0 | 6.0 | 0.00 | 0.15 | 0.15 | 78 | 1019.7 |
| 20260831165036 | 88 | 97 | 1.0 | 6.0 | 0.00 | 0.15 | 0.15 | 80 | 1019.8 |
| 20260831164036 | 87 | 68 | 0.0 | 2.0 | 0.00 | 0.15 | 0.15 | 82 | 1020.0 |
| 20260831163516 | 87 | 88 | 1.0 | 8.0 | 0.00 | 0.15 | 0.15 | 82 | 1020.1 |
| 20260831162516 | 88 | 95 | 1.0 | 5.0 | 0.00 | 0.15 | 0.15 | 81 | 1020.2 |
| 20260831161516 | 88 | 158 | 1.0 | 9.0 | 0.00 | 0.15 | 0.15 | 79 | 1020.2 |
| 20260831160516 | 89 | 160 | 1.0 | 8.0 | 0.00 | 0.15 | 0.15 | 78 | 1020.2 |
| 20260831155516 | 89 | 127 | 2.0 | 5.0 | 0.00 | 0.15 | 0.15 | 78 | 1020.2 |
| 20260831155016 | 89 | 136 | 1.0 | 5.0 | 0.00 | 0.15 | 0.15 | 79 | 1020.1 |
| 20260831154016 | 88 | 127 | 1.0 | 8.0 | 0.00 | 0.15 | 0.15 | 79 | 1020.2 |
| 20260831153016 | 88 | 85 | 1.0 | 6.0 | 0.00 | 0.15 | 0.15 | 79 | 1020.1 |
| 20260831152016 | 88 | 118 | 2.0 | 5.0 | 0.00 | 0.15 | 0.15 | 81 | 1020.1 |
| 20260831151516 | 87 | 89 | 1.0 | 6.0 | 0.00 | 0.15 | 0.15 | 81 | 1020.1 |
| 20260831150536 | 87 | 82 | 1.0 | 6.0 | 0.00 | 0.15 | 0.15 | 82 | 1019.9 |
| 20260831145516 | 86 | 89 | 2.0 | 8.0 | 0.00 | 0.15 | 0.15 | 83 | 1020.0 |
| 20260831144516 | 86 | 86 | 2.0 | 7.0 | 0.00 | 0.15 | 0.15 | 83 | 1019.9 |
| 20260831143519 | 86 | 74 | 3.0 | 7.0 | 0.00 | 0.15 | 0.15 | 84 | 1019.9 |
| 20260831142516 | 86 | 86 | 2.0 | 7.0 | 0.00 | 0.15 | 0.15 | 84 | 1019.8 |
| 20260831141516 | 86 | 87 | 1.0 | 5.0 | 0.00 | 0.15 | 0.15 | 85 | 1019.8 |
| 20260831140516 | 85 | 83 | 1.0 | 6.0 | 0.00 | 0.15 | 0.15 | 86 | 1019.7 |
| 20260831135516 | 84 | 81 | 1.0 | 9.0 | 0.00 | 0.15 | 0.15 | 88 | 1019.7 |
| 20260831134521 | 84 | 68 | 2.0 | 5.0 | 0.00 | 0.15 | 0.15 | 88 | 1019.7 |
| 20260831133516 | 84 | 80 | 0.0 | 5.0 | 0.00 | 0.15 | 0.15 | 90 | 1019.6 |
| 20260831132516 | 83 | 53 | 1.0 | 4.0 | 0.00 | 0.15 | 0.15 | 90 | 1019.6 |
| 20260831131516 | 83 | 87 | 1.0 | 5.0 | 0.00 | 0.15 | 0.15 | 92 | 1019.4 |
| 20260831130515 | 82 | 70 | 0.0 | 3.0 | 0.00 | 0.15 | 0.15 | 94 | 1019.2 |
| 20260831125516 | 81 | 82 | 0.0 | 3.0 | 0.00 | 0.15 | 0.15 | 96 | 1019.2 |
| 20260831124516 | 80 | 83 | 0.0 | 5.0 | 0.00 | 0.15 | 0.15 | 98 | 1019.1 |
| 20260831123516 | 79 | 80 | 0.0 | 2.0 | 0.00 | 0.15 | 0.15 | 98 | 1019.0 |
| 20260831122516 | 79 | 83 | 0.0 | 4.0 | 0.00 | 0.15 | 0.15 | 98 | 1018.9 |
| 20260831121559 | 78 | 82 | 0.0 | 2.0 | 0.00 | 0.15 | 0.15 | 99 | 1018.8 |
| 20260831120516 | 78 | 44 | 0.0 | 1.0 | 0.00 | 0.15 | 0.15 | 99 | 1018.6 |
| 20260831115515 | 78 | 0.0 | 0.0 | 0.00 | 0.15 | 0.15 | 99 | 1018.6 | |
| 20260831114516 | 78 | 0.0 | 0.0 | 0.00 | 0.15 | 0.15 | 98 | 1018.5 | |
| 20260831113516 | 77 | 0.0 | 0.0 | 0.00 | 0.15 | 0.15 | 98 | 1018.3 | |
| 20260831112518 | 77 | 0.0 | 1.0 | 0.00 | 0.15 | 0.15 | 98 | 1018.1 | |
| 20260831111536 | 77 | 63 | 0.0 | 1.0 | 0.00 | 0.15 | 0.15 | 98 | 1018.1 |
| 20260831110518 | 77 | 78 | 0.0 | 1.0 | 0.00 | 0.15 | 0.15 | 98 | 1018.0 |
| 20260831105518 | 77 | 63 | 0.0 | 1.0 | 0.00 | 0.15 | 0.15 | 98 | 1017.9 |
| 20260831104516 | 77 | 0.0 | 0.0 | 0.00 | 0.15 | 0.15 | 98 | 1017.9 | |
| 20260831103518 | 77 | 0.0 | 2.0 | 0.00 | 0.15 | 0.15 | 98 | 1017.8 | |
| 20260831102519 | 77 | 75 | 0.0 | 1.0 | 0.00 | 0.15 | 0.15 | 98 | 1017.8 |
| 20260831101519 | 77 | 75 | 0.0 | 1.0 | 0.00 | 0.15 | 0.15 | 98 | 1017.7 |
| 20260831100518 | 77 | 96 | 0.0 | 2.0 | 0.00 | 0.15 | 0.15 | 98 | 1017.7 |
| 20260831095517 | 77 | 0.0 | 0.0 | 0.00 | 0.15 | 0.15 | 98 | 1017.6 | |
| 20260831094518 | 77 | 104 | 0.0 | 1.0 | 0.00 | 0.15 | 0.15 | 98 | 1017.5 |
| 20260831093538 | 77 | 92 | 0.0 | 2.0 | 0.00 | 0.15 | 0.15 | 98 | 1017.5 |
| 20260831092517 | 77 | 50 | 0.0 | 1.0 | 0.00 | 0.15 | 0.15 | 98 | 1017.6 |
| 20260831091538 | 78 | 49 | 0.0 | 1.0 | 0.00 | 0.15 | 0.15 | 98 | 1017.3 |
| 20260831090520 | 78 | 0.0 | 1.0 | 0.00 | 0.15 | 0.15 | 98 | 1017.3 | |
| 20260831085518 | 78 | 49 | 0.0 | 1.0 | 0.01 | 0.15 | 0.15 | 98 | 1017.4 |
| 20260831084518 | 78 | 48 | 0.0 | 1.0 | 0.01 | 0.15 | 0.15 | 98 | 1017.4 |
| 20260831083518 | 78 | 58 | 0.0 | 1.0 | 0.01 | 0.15 | 0.15 | 98 | 1017.3 |
| 20260831082538 | 77 | 58 | 0.0 | 1.0 | 0.01 | 0.15 | 0.15 | 98 | 1017.3 |
| 20260831081518 | 77 | 116 | 0.0 | 1.0 | 0.01 | 0.15 | 0.15 | 98 | 1017.3 |
| 20260831080518 | 77 | 48 | 0.0 | 1.0 | 0.01 | 0.15 | 0.15 | 98 | 1017.2 |
| 20260831075518 | 77 | 0.0 | 1.0 | 0.00 | 0.14 | 0.14 | 98 | 1017.2 | |
| 20260831074518 | 77 | 0.0 | 1.0 | 0.00 | 0.14 | 0.14 | 98 | 1017.3 | |
| 20260831073518 | 77 | 61 | 0.0 | 1.0 | 0.00 | 0.14 | 0.14 | 98 | 1017.3 |
| 20260831072519 | 76 | 0.0 | 0.0 | 0.02 | 0.14 | 0.14 | 97 | 1017.3 | |
| 20260831071558 | 76 | 0.0 | 0.0 | 0.03 | 0.14 | 0.14 | 97 | 1017.2 | |
| 20260831070517 | 76 | 0.0 | 0.0 | 0.03 | 0.14 | 0.14 | 97 | 1017.4 | |
| 20260831065517 | 76 | 0.0 | 0.0 | 0.04 | 0.14 | 0.14 | 97 | 1017.5 | |
| 20260831064518 | 76 | 0.0 | 0.0 | 0.14 | 0.14 | 0.14 | 97 | 1017.6 | |
| 20260831063518 | 76 | 0.0 | 0.0 | 0.14 | 0.14 | 0.14 | 96 | 1017.8 | |
| 20260831062538 | 76 | 95 | 0.0 | 1.0 | 0.12 | 0.12 | 0.12 | 95 | 1018.1 |
| 20260831061517 | 76 | 95 | 0.0 | 1.0 | 0.11 | 0.11 | 0.11 | 94 | 1018.0 |
| 20260831060518 | 77 | 0.0 | 0.0 | 0.11 | 0.11 | 0.11 | 92 | 1018.2 | |
| 20260831055518 | 78 | 64 | 0.0 | 8.0 | 0.10 | 0.10 | 0.10 | 88 | 1018.4 |
| 20260831054518 | 82 | 88 | 3.0 | 8.0 | 0.00 | 0.00 | 0.00 | 81 | 1018.6 |
| 20260831053518 | 83 | 155 | 0.0 | 2.0 | 0.00 | 0.00 | 0.00 | 86 | 1018.2 |
| 20260831052538 | 83 | 173 | 0.0 | 4.0 | 0.00 | 0.00 | 0.00 | 87 | 1018.3 |
| 20260831051518 | 83 | 0.0 | 2.0 | 0.00 | 0.00 | 0.00 | 87 | 1018.3 | |
| 20260831050516 | 83 | 151 | 0.0 | 2.0 | 0.00 | 0.00 | 0.00 | 88 | 1018.3 |
| 20260831045517 | 82 | 0.0 | 0.0 | 0.00 | 0.00 | 0.00 | 88 | 1018.4 | |
| 20260831044517 | 83 | 0.0 | 1.0 | 0.00 | 0.00 | 0.00 | 88 | 1018.3 | |
| 20260831043516 | 82 | 116 | 0.0 | 2.0 | 0.00 | 0.00 | 0.00 | 88 | 1018.2 |
| 20260831042538 | 82 | 96 | 0.0 | 1.0 | 0.00 | 0.00 | 0.00 | 88 | 1018.2 |
| 20260831041516 | 82 | 96 | 0.0 | 1.0 | 0.00 | 0.00 | 0.00 | 88 | 1018.4 |
| 20260831040518 | 83 | 0.0 | 0.0 | 0.00 | 0.00 | 0.00 | 88 | 1018.5 | |
| 20260831035518 | 83 | 96 | 0.0 | 1.0 | 0.00 | 0.00 | 0.00 | 87 | 1018.6 |
| 20260831034517 | 83 | 96 | 0.0 | 1.0 | 0.00 | 0.00 | 0.00 | 86 | 1018.7 |
| 20260831033517 | 83 | 105 | 0.0 | 2.0 | 0.00 | 0.00 | 0.00 | 85 | 1018.8 |
| 20260831032517 | 83 | 145 | 0.0 | 1.0 | 0.00 | 0.00 | 0.00 | 86 | 1018.8 |
| 20260831031517 | 83 | 0.0 | 1.0 | 0.00 | 0.00 | 0.00 | 86 | 1018.7 | |
| 20260831030519 | 83 | 163 | 0.0 | 2.0 | 0.00 | 0.00 | 0.00 | 85 | 1018.7 |
| 20260831025517 | 83 | 91 | 0.0 | 2.0 | 0.00 | 0.00 | 0.00 | 86 | 1018.7 |
| 20260831024518 | 84 | 92 | 0.0 | 6.0 | 0.00 | 0.00 | 0.00 | 86 | 1018.7 |
| 20260831023518 | 83 | 128 | 0.0 | 3.0 | 0.00 | 0.00 | 0.00 | 85 | 1018.6 |
| 20260831022517 | 84 | 126 | 0.0 | 3.0 | 0.00 | 0.00 | 0.00 | 85 | 1018.5 |
| 20260831021518 | 83 | 133 | 0.0 | 3.0 | 0.00 | 0.00 | 0.00 | 85 | 1018.3 |
| 20260831020517 | 83 | 129 | 1.0 | 3.0 | 0.00 | 0.00 | 0.00 | 85 | 1018.3 |